RYR1104 LIRA-EPKK

Flight info

Callsign RYR1104
Flight time 1h 33m
Altitude 38000
Route TIBER DCT NIKOL/N0458F370 DCT ALIVO DCT VALLU DCT LAPNA DCT GOLVA/N0461F380 DCT GRZ/N0461F390 DCT LEDVA DCT NETIR
Aircraft B738/M-SDE2E3FGHIRWXY/LB1

Departure

Time 2026-05-08 18:35
Airport Ciampino–G. B. Pastine International Airport (LIRA)

Arrival

Time 2026-05-08 20:09
Airport Kraków John Paul II International Airport (EPKK)
Time Latitude Longitude Altitude Speed Heading
2026-05-08 18:05 41.80069 12.59019 413 ft 0 kts 123°
2026-05-08 18:21 41.80077 12.59004 404 ft 4 kts 139°
2026-05-08 18:21 41.80096 12.58979 403 ft 4 kts 129°
2026-05-08 18:22 41.80112 12.58950 398 ft 4 kts 120°
2026-05-08 18:22 41.80115 12.58943 399 ft 1 kts 119°
2026-05-08 18:26 41.80114 12.58945 399 ft 1 kts 118°
2026-05-08 18:26 41.80115 12.58963 398 ft 4 kts 76°
2026-05-08 18:26 41.80137 12.59006 410 ft 8 kts 52°
2026-05-08 18:27 41.80163 12.59051 405 ft 5 kts 52°
2026-05-08 18:27 41.80169 12.59063 405 ft 5 kts 54°
2026-05-08 18:27 41.80162 12.59125 405 ft 5 kts 143°
2026-05-08 18:27 41.80134 12.59145 406 ft 5 kts 153°
2026-05-08 18:28 41.80104 12.59165 406 ft 5 kts 153°
2026-05-08 18:28 41.80068 12.59190 406 ft 6 kts 153°
2026-05-08 18:28 41.80024 12.59221 406 ft 8 kts 153°
2026-05-08 18:28 41.79973 12.59255 406 ft 9 kts 153°
2026-05-08 18:29 41.79936 12.59281 406 ft 9 kts 153°
2026-05-08 18:29 41.79874 12.59324 406 ft 11 kts 152°
2026-05-08 18:29 41.79782 12.59387 402 ft 12 kts 153°
2026-05-08 18:29 41.79705 12.59441 406 ft 13 kts 153°
2026-05-08 18:30 41.79622 12.59497 403 ft 14 kts 153°
2026-05-08 18:30 41.79534 12.59557 405 ft 15 kts 153°
2026-05-08 18:30 41.79473 12.59599 406 ft 15 kts 153°
2026-05-08 18:30 41.79344 12.59689 406 ft 16 kts 152°
2026-05-08 18:31 41.79277 12.59735 406 ft 16 kts 153°
2026-05-08 18:31 41.79154 12.59820 406 ft 13 kts 153°
2026-05-08 18:31 41.79076 12.59874 406 ft 12 kts 152°
2026-05-08 18:31 41.79028 12.59928 406 ft 7 kts 108°
2026-05-08 18:32 41.79028 12.59956 407 ft 0 kts 78°
2026-05-08 18:34 41.79031 12.59971 407 ft 5 kts 74°
2026-05-08 18:34 41.79053 12.60030 410 ft 8 kts 58°
2026-05-08 18:34 41.79095 12.60060 416 ft 7 kts 351°
2026-05-08 18:35 41.79139 12.60034 409 ft 7 kts 332°
2026-05-08 18:35 41.79216 12.59981 412 ft 35 kts 332°
2026-05-08 18:35 41.79738 12.59621 414 ft 130 kts 333°
2026-05-08 18:35 41.81105 12.58674 1147 ft 179 kts 334°
2026-05-08 18:36 41.81859 12.58152 2008 ft 182 kts 334°
2026-05-08 18:36 41.82975 12.57369 3366 ft 179 kts 334°
2026-05-08 18:36 41.84068 12.56603 4482 ft 184 kts 334°
2026-05-08 18:36 41.85298 12.55756 4940 ft 215 kts 333°
2026-05-08 18:37 41.86540 12.54560 4969 ft 228 kts 307°
2026-05-08 18:37 41.87213 12.52620 4983 ft 231 kts 292°
2026-05-08 18:37 41.87802 12.50609 4968 ft 232 kts 293°
2026-05-08 18:37 41.88283 12.48554 4971 ft 232 kts 274°
2026-05-08 18:38 41.87953 12.46465 5024 ft 236 kts 248°
2026-05-08 18:38 41.87234 12.44292 5043 ft 269 kts 246°
2026-05-08 18:38 41.86448 12.41968 5028 ft 277 kts 246°
2026-05-08 18:38 41.85648 12.39591 4988 ft 280 kts 246°
2026-05-08 18:39 41.84855 12.37218 4983 ft 278 kts 246°
2026-05-08 18:39 41.84084 12.34901 4973 ft 273 kts 246°
2026-05-08 18:39 41.83318 12.32596 4988 ft 268 kts 246°
2026-05-08 18:39 41.82719 12.30248 4986 ft 268 kts 265°
2026-05-08 18:40 41.82891 12.27771 5011 ft 270 kts 288°
2026-05-08 18:40 41.83740 12.25526 4995 ft 272 kts 309°
2026-05-08 18:40 41.85166 12.23854 5344 ft 276 kts 332°
2026-05-08 18:40 41.86956 12.23045 6433 ft 271 kts 353°
2026-05-08 18:41 41.88811 12.23124 7357 ft 273 kts 12°
2026-05-08 18:41 41.90528 12.24210 8197 ft 280 kts 41°
2026-05-08 18:41 41.91673 12.26324 9072 ft 284 kts 61°
2026-05-08 18:41 41.92613 12.28688 9941 ft 289 kts 61°
2026-05-08 18:42 41.93641 12.31068 10492 ft 305 kts 56°
2026-05-08 18:42 41.94969 12.33450 10697 ft 332 kts 49°
2026-05-08 18:42 41.96636 12.35749 10976 ft 354 kts 43°
2026-05-08 18:42 41.98559 12.37905 11533 ft 365 kts 38°
2026-05-08 18:43 42.00636 12.39917 12239 ft 370 kts 34°
2026-05-08 18:43 42.02808 12.41835 12950 ft 377 kts 32°
2026-05-08 18:43 42.05022 12.43693 13636 ft 383 kts 31°
2026-05-08 18:43 42.07314 12.45567 14296 ft 388 kts 31°
2026-05-08 18:44 42.09641 12.47455 14949 ft 392 kts 30°
2026-05-08 18:44 42.11990 12.49360 15618 ft 396 kts 30°
2026-05-08 18:44 42.14364 12.51289 16270 ft 401 kts 30°
2026-05-08 18:44 42.16764 12.53244 16896 ft 406 kts 30°
2026-05-08 18:45 42.19193 12.55228 17506 ft 411 kts 30°
2026-05-08 18:45 42.21650 12.57236 18128 ft 415 kts 29°
2026-05-08 18:45 42.24132 12.59261 18682 ft 419 kts 28°
2026-05-08 18:45 42.26694 12.61037 19185 ft 421 kts 20°
2026-05-08 18:46 42.29410 12.62526 19762 ft 423 kts 18°
2026-05-08 18:46 42.32163 12.63951 20349 ft 425 kts 17°
2026-05-08 18:46 42.34933 12.65367 21001 ft 425 kts 18°
2026-05-08 18:46 42.37703 12.66793 21560 ft 428 kts 18°
2026-05-08 18:47 42.40502 12.68251 22014 ft 433 kts 18°
2026-05-08 18:47 42.43328 12.69739 22479 ft 438 kts 18°
2026-05-08 18:47 42.46176 12.71252 22949 ft 442 kts 17°
2026-05-08 18:47 42.49005 12.72764 23432 ft 445 kts 17°
2026-05-08 18:48 42.51898 12.74316 23833 ft 449 kts 18°
2026-05-08 18:48 42.54807 12.75879 24280 ft 450 kts 18°
2026-05-08 18:48 42.57716 12.77447 24718 ft 451 kts 18°
2026-05-08 18:48 42.60650 12.79028 25046 ft 456 kts 18°
2026-05-08 18:49 42.63613 12.80626 25405 ft 460 kts 18°
2026-05-08 18:49 42.66590 12.82232 25780 ft 462 kts 17°
2026-05-08 18:49 42.69583 12.83849 26183 ft 463 kts 17°
2026-05-08 18:49 42.72583 12.85472 26574 ft 465 kts 17°
2026-05-08 18:50 42.75558 12.87082 26909 ft 468 kts 17°
2026-05-08 18:50 42.78592 12.88725 27263 ft 470 kts 16°
2026-05-08 18:50 42.81643 12.90380 27610 ft 473 kts 16°
2026-05-08 18:50 42.84704 12.92042 27903 ft 476 kts 16°
2026-05-08 18:51 42.87785 12.93716 28208 ft 477 kts 15°
2026-05-08 18:51 42.90871 12.95395 28612 ft 478 kts 15°
2026-05-08 18:51 42.93970 12.97083 28908 ft 481 kts 15°
2026-05-08 18:51 42.97088 12.98783 29200 ft 484 kts 15°
2026-05-08 18:52 43.00173 13.00468 29603 ft 483 kts 15°
2026-05-08 18:52 43.03285 13.02170 30077 ft 481 kts 14°
2026-05-08 18:52 43.06385 13.03870 30490 ft 479 kts 14°
2026-05-08 18:52 43.09473 13.05563 30884 ft 478 kts 15°
2026-05-08 18:53 43.12560 13.07256 31230 ft 478 kts 15°
2026-05-08 18:53 43.15648 13.08951 31571 ft 477 kts 15°
2026-05-08 18:53 43.18723 13.10641 31985 ft 475 kts 15°
2026-05-08 18:53 43.21784 13.12326 32440 ft 473 kts 14°
2026-05-08 18:54 43.24829 13.14004 32847 ft 471 kts 15°
2026-05-08 18:54 43.27827 13.15656 33226 ft 470 kts 15°
2026-05-08 18:54 43.30862 13.17330 33569 ft 470 kts 15°
2026-05-08 18:54 43.33890 13.19002 33927 ft 469 kts 14°
2026-05-08 18:55 43.39923 13.22340 34525 ft 467 kts 14°
2026-05-08 18:55 43.42942 13.24012 34714 ft 469 kts 14°
2026-05-08 18:55 43.45971 13.25690 34948 ft 470 kts 15°
2026-05-08 18:56 43.49010 13.27377 35108 ft 472 kts 16°
2026-05-08 18:56 43.52064 13.29073 35296 ft 473 kts 16°
2026-05-08 18:56 43.55071 13.30748 35575 ft 472 kts 16°
2026-05-08 18:56 43.58114 13.32446 35853 ft 472 kts 16°
2026-05-08 18:57 43.61156 13.34144 36055 ft 472 kts 16°
2026-05-08 18:57 43.64208 13.35848 36274 ft 473 kts 17°
2026-05-08 18:57 43.67260 13.37554 36452 ft 474 kts 17°
2026-05-08 18:57 43.70318 13.39265 36653 ft 475 kts 17°
2026-05-08 18:58 43.73380 13.40981 36904 ft 474 kts 17°
2026-05-08 18:58 43.76433 13.42694 37158 ft 473 kts 17°
2026-05-08 18:58 43.79487 13.44410 37373 ft 474 kts 17°
2026-05-08 18:58 43.82500 13.46104 37578 ft 474 kts 17°
2026-05-08 18:59 43.85557 13.47824 37766 ft 475 kts 17°
2026-05-08 18:59 43.88619 13.49548 37975 ft 475 kts 17°
2026-05-08 18:59 43.91680 13.51275 38026 ft 476 kts 18°
2026-05-08 19:00 43.97805 13.54737 38035 ft 474 kts 18°
2026-05-08 19:00 44.03899 13.58189 38037 ft 472 kts 18°
2026-05-08 19:01 44.09968 13.61633 38034 ft 470 kts 18°
2026-05-08 19:01 44.15980 13.65053 38035 ft 469 kts 18°
2026-05-08 19:02 44.22021 13.68508 38035 ft 470 kts 19°
2026-05-08 19:02 44.27841 13.72773 38040 ft 474 kts 26°
2026-05-08 19:03 44.33545 13.77426 38031 ft 475 kts 26°
2026-05-08 19:03 44.39270 13.82075 38038 ft 477 kts 26°
2026-05-08 19:04 44.44992 13.86654 38032 ft 478 kts 26°
2026-05-08 19:04 44.50774 13.91258 38031 ft 479 kts 26°
2026-05-08 19:05 44.56570 13.95878 38035 ft 480 kts 26°
2026-05-08 19:05 44.62371 14.00519 38027 ft 480 kts 26°
2026-05-08 19:06 44.68139 14.05144 38027 ft 481 kts 26°
2026-05-08 19:06 44.73951 14.09817 38021 ft 481 kts 27°
2026-05-08 19:07 44.79759 14.14498 38031 ft 481 kts 27°
2026-05-08 19:07 44.85562 14.19185 38016 ft 481 kts 27°
2026-05-08 19:08 44.91360 14.23879 38014 ft 480 kts 27°
2026-05-08 19:08 44.97113 14.28548 38026 ft 480 kts 27°
2026-05-08 19:09 45.02894 14.33250 38019 ft 479 kts 27°
2026-05-08 19:09 45.08673 14.37961 38046 ft 480 kts 27°
2026-05-08 19:10 45.14456 14.42688 38027 ft 480 kts 27°
2026-05-08 19:10 45.20195 14.47389 38024 ft 480 kts 27°
2026-05-08 19:11 45.25970 14.52132 38034 ft 480 kts 27°
2026-05-08 19:11 45.31743 14.56883 38024 ft 480 kts 27°
2026-05-08 19:12 45.37524 14.61653 38027 ft 481 kts 27°
2026-05-08 19:12 45.43266 14.66403 38046 ft 480 kts 27°
2026-05-08 19:13 45.49046 14.71194 38029 ft 480 kts 27°
2026-05-08 19:13 45.54835 14.75950 38037 ft 480 kts 26°
2026-05-08 19:14 45.60733 14.80457 38044 ft 481 kts 25°
2026-05-08 19:14 45.66612 14.84892 38038 ft 481 kts 25°
2026-05-08 19:15 45.72524 14.89408 38029 ft 482 kts 25°
2026-05-08 19:15 45.78432 14.93963 38035 ft 483 kts 25°
2026-05-08 19:16 45.84346 14.98540 38029 ft 483 kts 25°
2026-05-08 19:16 45.90224 15.03099 38027 ft 484 kts 25°
2026-05-08 19:17 45.96150 15.07704 38034 ft 484 kts 26°
2026-05-08 19:17 46.02073 15.12317 38031 ft 485 kts 25°
2026-05-08 19:18 46.08004 15.16950 38023 ft 485 kts 26°
2026-05-08 19:18 46.13935 15.21593 38023 ft 485 kts 26°
2026-05-08 19:19 46.19824 15.26216 38040 ft 485 kts 26°
2026-05-08 19:19 46.25753 15.30880 38029 ft 485 kts 26°
2026-05-08 19:20 46.31689 15.35525 38036 ft 485 kts 25°
2026-05-08 19:20 46.37668 15.40022 38040 ft 484 kts 24°
2026-05-08 19:21 46.43607 15.44484 38029 ft 484 kts 24°
2026-05-08 19:21 46.49575 15.49011 38029 ft 484 kts 24°
2026-05-08 19:22 46.55535 15.53542 38033 ft 484 kts 24°
2026-05-08 19:22 46.61508 15.58062 38031 ft 484 kts 24°
2026-05-08 19:23 46.67523 15.62239 38001 ft 477 kts
2026-05-08 19:23 46.70762 15.62790 38051 ft 465 kts 353°
2026-05-08 19:23 46.73940 15.62186 38050 ft 457 kts 340°
2026-05-08 19:23 46.76865 15.60543 38050 ft 447 kts 327°
2026-05-08 19:24 46.79569 15.58320 38058 ft 446 kts 324°
2026-05-08 19:24 46.84910 15.53695 38043 ft 447 kts 324°
2026-05-08 19:25 46.90286 15.49208 38050 ft 449 kts 326°
2026-05-08 19:25 46.93177 15.47388 38026 ft 460 kts 342°
2026-05-08 19:25 46.96384 15.46937 38075 ft 470 kts 359°
2026-05-08 19:25 46.99629 15.47790 38039 ft 481 kts 17°
2026-05-08 19:26 47.02696 15.49795 38075 ft 484 kts 22°
2026-05-08 19:26 47.08718 15.54303 38055 ft 487 kts 24°
2026-05-08 19:27 47.14737 15.58871 38043 ft 488 kts 24°
2026-05-08 19:27 47.20755 15.63351 38060 ft 488 kts 23°
2026-05-08 19:28 47.26825 15.67822 38055 ft 488 kts 23°
2026-05-08 19:28 47.32888 15.72286 38073 ft 487 kts 23°
2026-05-08 19:29 47.38944 15.76759 38070 ft 486 kts 23°
2026-05-08 19:29 47.44945 15.81208 38074 ft 485 kts 23°
2026-05-08 19:30 47.50964 15.85682 38076 ft 484 kts 23°
2026-05-08 19:30 47.56971 15.90160 38081 ft 483 kts 23°
2026-05-08 19:31 47.62979 15.94648 38065 ft 484 kts 23°
2026-05-08 19:31 47.68979 15.99143 38065 ft 483 kts 23°
2026-05-08 19:32 47.74973 16.03644 37829 ft 486 kts 23°
2026-05-08 19:32 47.77940 16.05877 37937 ft 481 kts 23°
2026-05-08 19:32 47.80923 16.08126 37985 ft 481 kts 23°
2026-05-08 19:33 47.86922 16.12653 38181 ft 485 kts 23°
2026-05-08 19:33 47.89928 16.14927 38460 ft 483 kts 23°
2026-05-08 19:33 47.92918 16.17193 38777 ft 481 kts 23°
2026-05-08 19:33 47.95889 16.19447 39004 ft 478 kts 23°
2026-05-08 19:34 47.98860 16.21703 39042 ft 481 kts 23°
2026-05-08 19:34 48.04802 16.26222 39047 ft 483 kts 23°
2026-05-08 19:35 48.10769 16.30775 39047 ft 481 kts 23°
2026-05-08 19:35 48.16715 16.35323 39063 ft 479 kts 24°
2026-05-08 19:36 48.22650 16.39875 39051 ft 478 kts 24°
2026-05-08 19:36 48.28567 16.44425 39054 ft 478 kts 24°
2026-05-08 19:37 48.34444 16.48955 39059 ft 478 kts 24°
2026-05-08 19:37 48.40354 16.53523 39055 ft 478 kts 24°
2026-05-08 19:37 48.43337 16.55831 38702 ft 485 kts 24°
2026-05-08 19:38 48.46323 16.58147 38477 ft 482 kts 24°
2026-05-08 19:38 48.49300 16.60460 38188 ft 480 kts 24°
2026-05-08 19:38 48.52268 16.62769 38072 ft 479 kts 24°
2026-05-08 19:39 48.58297 16.67466 38069 ft 482 kts 24°
2026-05-08 19:39 48.64142 16.72032 38057 ft 484 kts 24°
2026-05-08 19:40 48.70109 16.76771 38050 ft 486 kts 28°
2026-05-08 19:40 48.75353 16.83309 38063 ft 494 kts 47°
2026-05-08 19:41 48.79625 16.91484 38067 ft 495 kts 50°
2026-05-08 19:41 48.83775 16.99724 38068 ft 495 kts 50°
2026-05-08 19:42 48.87985 17.07989 38069 ft 494 kts 50°
2026-05-08 19:42 48.92215 17.16219 38087 ft 494 kts 50°
2026-05-08 19:43 48.96448 17.24453 38081 ft 494 kts 50°
2026-05-08 19:43 49.00641 17.32637 38079 ft 493 kts 50°
2026-05-08 19:44 49.04847 17.40878 38086 ft 492 kts 50°
2026-05-08 19:44 49.09043 17.49126 38098 ft 492 kts 50°
2026-05-08 19:45 49.13223 17.57368 38096 ft 491 kts 50°
2026-05-08 19:45 49.17393 17.65617 38100 ft 490 kts 50°
2026-05-08 19:46 49.21523 17.73809 38089 ft 490 kts 50°
2026-05-08 19:46 49.27778 17.86267 37040 ft 493 kts 50°
2026-05-08 19:47 49.29864 17.90435 36411 ft 492 kts 50°
2026-05-08 19:47 49.31945 17.94600 35777 ft 492 kts 50°
2026-05-08 19:47 49.34029 17.98777 35060 ft 495 kts 49°
2026-05-08 19:47 49.36097 18.02927 34364 ft 498 kts 49°
2026-05-08 19:48 49.38208 18.07168 33546 ft 502 kts 49°
2026-05-08 19:48 49.40329 18.11439 32761 ft 504 kts 49°
2026-05-08 19:48 49.42455 18.15726 31955 ft 505 kts 49°
2026-05-08 19:48 49.44582 18.20023 31180 ft 506 kts 49°
2026-05-08 19:49 49.46727 18.24361 30028 ft 515 kts 49°
2026-05-08 19:49 49.48894 18.28752 28985 ft 516 kts 49°
2026-05-08 19:49 49.51060 18.33150 27994 ft 515 kts 50°
2026-05-08 19:49 49.53204 18.37516 27365 ft 507 kts 50°
2026-05-08 19:50 49.55288 18.41767 26668 ft 501 kts 50°
2026-05-08 19:50 49.57370 18.46018 25997 ft 494 kts 50°
2026-05-08 19:50 49.59423 18.50215 25352 ft 487 kts 51°
2026-05-08 19:50 49.61447 18.54356 24718 ft 480 kts 51°
2026-05-08 19:51 49.63441 18.58440 24098 ft 474 kts 51°
2026-05-08 19:51 49.65408 18.62476 23420 ft 468 kts 51°
2026-05-08 19:51 49.67355 18.66465 22700 ft 461 kts 50°
2026-05-08 19:51 49.69561 18.69957 22226 ft 448 kts 40°
2026-05-08 19:52 49.71564 18.73543 21933 ft 438 kts 59°
2026-05-08 19:52 49.72672 18.77892 21697 ft 439 kts 72°
2026-05-08 19:52 49.73606 18.82381 21459 ft 448 kts 70°
2026-05-08 19:52 49.74655 18.86891 20873 ft 445 kts 69°
2026-05-08 19:53 49.75777 18.91313 20297 ft 438 kts 67°
2026-05-08 19:53 49.76936 18.95640 19696 ft 433 kts 66°
2026-05-08 19:53 49.78108 18.99907 19104 ft 429 kts 66°
2026-05-08 19:53 49.79279 19.04129 18510 ft 425 kts 66°
2026-05-08 19:54 49.80438 19.08312 17844 ft 421 kts 66°
2026-05-08 19:54 49.81582 19.12455 17184 ft 417 kts 66°
2026-05-08 19:54 49.82711 19.16562 16467 ft 410 kts 66°
2026-05-08 19:54 49.83814 19.20589 15735 ft 401 kts 66°
2026-05-08 19:55 49.84890 19.24531 15056 ft 393 kts 66°
2026-05-08 19:55 49.85939 19.28384 14380 ft 384 kts 66°
2026-05-08 19:55 49.86952 19.32112 13698 ft 376 kts 66°
2026-05-08 19:55 49.87958 19.35815 12947 ft 370 kts 67°
2026-05-08 19:56 49.88945 19.39455 12240 ft 364 kts 67°
2026-05-08 19:56 49.89917 19.43047 11612 ft 357 kts 68°
2026-05-08 19:56 49.90866 19.46556 11172 ft 347 kts 68°
2026-05-08 19:56 49.91785 19.49961 10758 ft 338 kts 68°
2026-05-08 19:57 49.92682 19.53290 10339 ft 330 kts 68°
2026-05-08 19:57 49.93558 19.56546 9922 ft 324 kts 69°
2026-05-08 19:57 49.94415 19.59738 9468 ft 318 kts 68°
2026-05-08 19:57 49.95246 19.62837 9025 ft 312 kts 68°
2026-05-08 19:58 49.96083 19.65957 8576 ft 307 kts 68°
2026-05-08 19:58 49.96884 19.68952 8161 ft 302 kts 68°
2026-05-08 19:58 49.97684 19.71947 7741 ft 298 kts 68°
2026-05-08 19:58 49.98429 19.74901 7448 ft 288 kts 73°
2026-05-08 19:59 49.98865 19.77871 7192 ft 277 kts 80°
2026-05-08 19:59 49.99212 19.80769 6922 ft 269 kts 79°
2026-05-08 19:59 49.99561 19.83567 6761 ft 255 kts 79°
2026-05-08 19:59 49.99898 19.86164 6640 ft 236 kts 78°
2026-05-08 20:00 50.00215 19.88575 6501 ft 219 kts 78°
2026-05-08 20:00 50.00517 19.90829 6286 ft 209 kts 78°
2026-05-08 20:00 50.00810 19.93011 6022 ft 205 kts 78°
2026-05-08 20:00 50.01099 19.95156 5772 ft 206 kts 78°
2026-05-08 20:01 50.01392 19.97334 5520 ft 207 kts 78°
2026-05-08 20:01 50.01685 19.99510 5290 ft 203 kts 77°
2026-05-08 20:01 50.01973 20.01638 5043 ft 200 kts 77°
2026-05-08 20:01 50.02258 20.03735 4782 ft 197 kts 77°
2026-05-08 20:02 50.02538 20.05808 4518 ft 195 kts 77°
2026-05-08 20:02 50.02815 20.07860 4257 ft 193 kts 76°
2026-05-08 20:02 50.03151 20.09844 4032 ft 185 kts 61°
2026-05-08 20:02 50.04042 20.11079 3987 ft 171 kts 18°
2026-05-08 20:03 50.05216 20.11310 3962 ft 172 kts 348°
2026-05-08 20:03 50.06378 20.10922 3973 ft 172 kts 347°
2026-05-08 20:03 50.07529 20.10557 3987 ft 171 kts 347°
2026-05-08 20:03 50.08689 20.10186 3972 ft 170 kts 347°
2026-05-08 20:04 50.09848 20.09810 3966 ft 170 kts 347°
2026-05-08 20:04 50.10983 20.09336 3954 ft 169 kts 330°
2026-05-08 20:04 50.11643 20.07916 3906 ft 172 kts 278°
2026-05-08 20:04 50.11532 20.06043 3780 ft 177 kts 262°
2026-05-08 20:05 50.11340 20.04161 3585 ft 174 kts 262°
2026-05-08 20:05 50.11108 20.02337 3427 ft 170 kts 260°
2026-05-08 20:05 50.10861 20.00545 3257 ft 170 kts 260°
2026-05-08 20:05 50.10608 19.98748 3101 ft 169 kts 260°
2026-05-08 20:06 50.10357 19.96967 2996 ft 168 kts 260°
2026-05-08 20:06 50.10105 19.95172 2799 ft 174 kts 260°
2026-05-08 20:06 50.09843 19.93311 2565 ft 172 kts 260°
2026-05-08 20:06 50.09598 19.91565 2329 ft 164 kts 260°
2026-05-08 20:07 50.09362 19.89883 2124 ft 158 kts 261°
2026-05-08 20:07 50.09131 19.88223 1904 ft 157 kts 259°
2026-05-08 20:07 50.08897 19.86552 1683 ft 158 kts 260°
2026-05-08 20:07 50.08657 19.84871 1416 ft 158 kts 259°
2026-05-08 20:08 50.08447 19.83252 1235 ft 148 kts 259°
2026-05-08 20:08 50.08225 19.81728 1049 ft 142 kts 260°
2026-05-08 20:08 50.08011 19.80217 866 ft 141 kts 259°
2026-05-08 20:08 50.07820 19.78794 801 ft 119 kts 258°
2026-05-08 20:09 50.07688 19.77866 796 ft 57 kts 258°
2026-05-08 20:09 50.07625 19.77389 799 ft 19 kts 258°
2026-05-08 20:09 50.07598 19.77209 801 ft 17 kts 257°
2026-05-08 20:09 50.07573 19.77038 801 ft 16 kts 257°
2026-05-08 20:10 50.07543 19.76878 801 ft 14 kts 235°
2026-05-08 20:10 50.07456 19.76853 800 ft 14 kts 168°
2026-05-08 20:10 50.07429 19.76862 799 ft 2 kts 167°
2026-05-08 20:10 50.07413 19.76867 799 ft 3 kts 167°
2026-05-08 20:11 50.07395 19.76874 799 ft 3 kts 167°
2026-05-08 20:11 50.07375 19.76880 799 ft 3 kts 167°
2026-05-08 20:11 50.07355 19.76887 799 ft 3 kts 167°
2026-05-08 20:11 50.07335 19.76894 799 ft 3 kts 167°
2026-05-08 20:12 50.07317 19.76909 799 ft 4 kts 138°
2026-05-08 20:12 50.07309 19.76967 799 ft 7 kts 85°
2026-05-08 20:12 50.07318 19.77047 799 ft 8 kts 78°
2026-05-08 20:12 50.07329 19.77129 799 ft 8 kts 78°
2026-05-08 20:13 50.07340 19.77207 799 ft 7 kts 78°
2026-05-08 20:13 50.07351 19.77283 799 ft 7 kts 77°
2026-05-08 20:13 50.07361 19.77356 799 ft 7 kts 77°
2026-05-08 20:13 50.07372 19.77428 799 ft 7 kts 77°
2026-05-08 20:14 50.07382 19.77499 799 ft 7 kts 77°
2026-05-08 20:14 50.07392 19.77569 799 ft 7 kts 77°
2026-05-08 20:14 50.07402 19.77637 799 ft 6 kts 77°
2026-05-08 20:14 50.07411 19.77703 799 ft 6 kts 77°
2026-05-08 20:15 50.07420 19.77769 799 ft 6 kts 78°
2026-05-08 20:15 50.07430 19.77842 799 ft 8 kts 78°
2026-05-08 20:15 50.07443 19.77944 799 ft 12 kts 78°
2026-05-08 20:15 50.07465 19.78098 799 ft 18 kts 77°
2026-05-08 20:16 50.07496 19.78318 799 ft 22 kts 78°
2026-05-08 20:16 50.07528 19.78543 799 ft 20 kts 78°
2026-05-08 20:16 50.07558 19.78757 799 ft 20 kts 78°
2026-05-08 20:16 50.07585 19.78953 799 ft 18 kts 77°
2026-05-08 20:17 50.07610 19.79130 799 ft 15 kts 78°
2026-05-08 20:17 50.07632 19.79290 799 ft 15 kts 78°
2026-05-08 20:17 50.07652 19.79435 799 ft 12 kts 77°
2026-05-08 20:17 50.07670 19.79560 799 ft 11 kts 78°
2026-05-08 20:18 50.07686 19.79676 799 ft 10 kts 78°
2026-05-08 20:18 50.07700 19.79780 799 ft 9 kts 77°
2026-05-08 20:18 50.07683 19.79868 799 ft 9 kts 142°
2026-05-08 20:18 50.07626 19.79892 799 ft 8 kts 169°
2026-05-08 20:19 50.07569 19.79910 799 ft 8 kts 166°
2026-05-08 20:19 50.07514 19.79932 799 ft 8 kts 166°
2026-05-08 20:19 50.07460 19.79950 799 ft 8 kts 168°
2026-05-08 20:19 50.07409 19.79986 799 ft 8 kts 126°
2026-05-08 20:20 50.07406 19.80072 799 ft 8 kts 80°
2026-05-08 20:20 50.07417 19.80164 799 ft 8 kts 78°
2026-05-08 20:20 50.07429 19.80246 799 ft 7 kts 76°
2026-05-08 20:20 50.07439 19.80315 799 ft 7 kts 76°
2026-05-08 20:21 50.07466 19.80372 799 ft 7 kts 31°
2026-05-08 20:21 50.07509 19.80396 799 ft 7 kts 17°
2026-05-08 20:21 50.07546 19.80430 799 ft 5 kts 64°
2026-05-08 20:21 50.07543 19.80483 799 ft 4 kts 105°
2026-05-08 20:22 50.07537 19.80512 799 ft 0 kts 106°